When you browse on this site, cookies collect data to enhance your experience and personalize the content and advertising you see.
Visit our Privacy Policy to learn more. By continuing to use the site, you agree to this use of cookies and data.
  • In Belgium
  • List of Countries
  • For 7 days
  • Water Temperature
  • Satellite Maps
  • Weather Map
  • Weather Widgets
  • user-avatar
    Login

    Hourly Weather Brisbane

    Today, 25 April, Thursday

    Time Temperature Precipitation Wind Pressure Humidity
    00:00 +20°C° 0.1 mm 2 mps 764 mmHg 88%
    01:00 +21°C° 0.1 mm 1 mps 764 mmHg 89%
    02:00 +21°C° 0.1 mm 1 mps 764 mmHg 89%
    03:00 +20°C° 0.1 mm 1 mps 763 mmHg 90%
    04:00 +19°C° 0 mm 2 mps 763 mmHg 92%
    05:00 +19°C° 0 mm 2 mps 763 mmHg 91%
    06:00 +20°C° 0 mm 2 mps 763 mmHg 90%
    07:00 +20°C° 0 mm 2 mps 763 mmHg 90%
    08:00 +23°C° 0 mm 2 mps 763 mmHg 81%
    09:00 +25°C° 0 mm 2 mps 763 mmHg 73%
    10:00 +26°C° 0 mm 3 mps 763 mmHg 64%
    11:00 +26°C° 0.1 mm 3 mps 763 mmHg 64%
    12:00 +26°C° 0.1 mm 3 mps 762 mmHg 64%
    13:00 +27°C° 0.1 mm 3 mps 762 mmHg 64%
    14:00 +26°C° 0 mm 3 mps 762 mmHg 65%
    15:00 +26°C° 0 mm 3 mps 761 mmHg 65%
    16:00 +26°C° 0 mm 3 mps 761 mmHg 66%
    17:00 +25°C° 0 mm 2 mps 762 mmHg 70%
    18:00 +24°C° 0 mm 2 mps 762 mmHg 74%
    19:00 +23°C° 0 mm 2 mps 763 mmHg 78%
    20:00 +21°C° 0 mm 2 mps 763 mmHg 80%
    21:00 +22°C° 0 mm 1 mps 763 mmHg 81%
    22:00 +21°C° 0 mm 1 mps 763 mmHg 83%
    23:00 +21°C° 0 mm 1 mps 763 mmHg 85%

    Tomorrow, 26 April, Friday

    Time Temperature Precipitation Wind Pressure Humidity
    00:00 +21°C° 0 mm 1 mps 763 mmHg 86%
    01:00 +18°C° 0 mm 0 mps 762 mmHg 88%
    02:00 +20°C° 0 mm 1 mps 762 mmHg 88%
    03:00 +20°C° 0 mm 1 mps 762 mmHg 88%
    04:00 +20°C° 0 mm 1 mps 762 mmHg 88%
    05:00 +20°C° 0 mm 1 mps 762 mmHg 88%
    06:00 +21°C° 0 mm 1 mps 762 mmHg 87%
    07:00 +21°C° 0 mm 1 mps 762 mmHg 87%
    08:00 +23°C° 0 mm 1 mps 762 mmHg 78%
    09:00 +23°C° 0 mm 0 mps 762 mmHg 70%
    10:00 +26°C° 0 mm 0 mps 762 mmHg 61%
    11:00 +26°C° 0 mm 0 mps 762 mmHg 57%
    12:00 +29°C° 0 mm 1 mps 761 mmHg 53%
    13:00 +30°C° 0 mm 1 mps 760 mmHg 49%
    14:00 +29°C° 0 mm 2 mps 760 mmHg 53%
    15:00 +28°C° 0 mm 2 mps 759 mmHg 57%
    16:00 +28°C° 0 mm 3 mps 759 mmHg 62%
    17:00 +26°C° 0 mm 3 mps 759 mmHg 69%
    18:00 +25°C° 0 mm 3 mps 760 mmHg 76%
    19:00 +22°C° 0 mm 3 mps 760 mmHg 84%
    20:00 +23°C° 0 mm 2 mps 760 mmHg 85%
    21:00 +21°C° 0 mm 2 mps 761 mmHg 87%
    22:00 +22°C° 0 mm 1 mps 761 mmHg 89%
    23:00 +22°C° 0 mm 1 mps 761 mmHg 89%

    Day after tomorrow, 27 April, Saturday

    Time Temperature Precipitation Wind Pressure Humidity
    00:00 +21°C° 0 mm 1 mps 761 mmHg 89%
    01:00 +21°C° 0 mm 1 mps 761 mmHg 89%
    02:00 +20°C° 0 mm 2 mps 760 mmHg 89%
    03:00 +20°C° 0 mm 2 mps 760 mmHg 89%
    04:00 +19°C° 0 mm 2 mps 760 mmHg 89%
    05:00 +19°C° 0 mm 2 mps 761 mmHg 87%
    06:00 +19°C° 0 mm 2 mps 761 mmHg 84%
    07:00 +20°C° 0 mm 3 mps 762 mmHg 82%
    08:00 +21°C° 0 mm 3 mps 762 mmHg 74%
    09:00 +23°C° 0 mm 4 mps 763 mmHg 66%
    10:00 +26°C° 0 mm 4 mps 763 mmHg 58%
    11:00 +27°C° 0 mm 4 mps 762 mmHg 56%
    12:00 +28°C° 0 mm 4 mps 762 mmHg 55%
    13:00 +28°C° 0 mm 4 mps 762 mmHg 54%
    14:00 +27°C° 0.1 mm 5 mps 762 mmHg 57%
    15:00 +27°C° 0.1 mm 5 mps 762 mmHg 60%
    16:00 +26°C° 0.1 mm 5 mps 762 mmHg 62%
    17:00 +25°C° 0 mm 5 mps 762 mmHg 66%
    18:00 +22°C° 0 mm 5 mps 763 mmHg 70%
    19:00 +21°C° 0 mm 5 mps 764 mmHg 74%
    20:00 +21°C° 0 mm 4 mps 764 mmHg 76%
    21:00 +20°C° 0 mm 4 mps 765 mmHg 79%
    22:00 +20°C° 0 mm 4 mps 765 mmHg 81%
    23:00 +19°C° 0 mm 3 mps 765 mmHg 83%

    28 April, Sunday

    Time Temperature Precipitation Wind Pressure Humidity
    00:00 +19°C° 0 mm 3 mps 765 mmHg 85%
    01:00 +18°C° 0 mm 3 mps 764 mmHg 87%
    02:00 +18°C° 0 mm 3 mps 764 mmHg 88%
    03:00 +18°C° 0 mm 3 mps 764 mmHg 89%
    04:00 +18°C° 0 mm 3 mps 764 mmHg 90%
    05:00 +18°C° 0 mm 2 mps 764 mmHg 89%
    06:00 +18°C° 0 mm 2 mps 765 mmHg 89%
    07:00 +18°C° 0 mm 2 mps 765 mmHg 88%
    08:00 +20°C° 0 mm 2 mps 765 mmHg 80%
    09:00 +23°C° 0 mm 2 mps 765 mmHg 73%
    10:00 +25°C° 0 mm 2 mps 765 mmHg 65%
    11:00 +25°C° 0.1 mm 2 mps 765 mmHg 63%
    12:00 +26°C° 0.1 mm 2 mps 764 mmHg 61%
    13:00 +26°C° 0.1 mm 2 mps 764 mmHg 59%
    14:00 +26°C° 0.1 mm 2 mps 764 mmHg 61%
    15:00 +25°C° 0.1 mm 2 mps 763 mmHg 63%
    16:00 +25°C° 0.1 mm 2 mps 763 mmHg 65%
    17:00 +24°C° 0 mm 2 mps 763 mmHg 70%
    18:00 +23°C° 0 mm 2 mps 764 mmHg 74%
    19:00 +20°C° 0 mm 2 mps 764 mmHg 79%
    20:00 +20°C° 0 mm 2 mps 764 mmHg 81%
    21:00 +21°C° 0 mm 1 mps 765 mmHg 82%
    22:00 +20°C° 0 mm 1 mps 765 mmHg 84%
    23:00 +20°C° 0 mm 1 mps 765 mmHg 85%

    29 April, Monday

    Time Temperature Precipitation Wind Pressure Humidity
    00:00 +19°C° 0 mm 1 mps 764 mmHg 87%
    01:00 +19°C° 0 mm 1 mps 764 mmHg 88%
    02:00 +19°C° 0 mm 1 mps 764 mmHg 89%
    03:00 +19°C° 0 mm 1 mps 764 mmHg 90%
    04:00 +18°C° 0 mm 1 mps 764 mmHg 91%
    05:00 +18°C° 0 mm 1 mps 764 mmHg 91%
    06:00 +18°C° 0 mm 2 mps 765 mmHg 90%
    07:00 +18°C° 0 mm 2 mps 765 mmHg 90%
    08:00 +20°C° 0 mm 2 mps 766 mmHg 81%
    09:00 +23°C° 0 mm 2 mps 766 mmHg 72%
    10:00 +25°C° 0 mm 2 mps 766 mmHg 63%
    11:00 +25°C° 0.1 mm 2 mps 765 mmHg 62%
    12:00 +25°C° 0.1 mm 3 mps 765 mmHg 61%
    13:00 +26°C° 0.1 mm 3 mps 764 mmHg 60%
    14:00 +25°C° 0 mm 4 mps 764 mmHg 60%
    15:00 +25°C° 0 mm 4 mps 764 mmHg 61%
    16:00 +23°C° 0 mm 4 mps 764 mmHg 62%
    17:00 +24°C° 0 mm 3 mps 764 mmHg 65%
    18:00 +22°C° 0 mm 3 mps 765 mmHg 67%
    19:00 +21°C° 0 mm 3 mps 766 mmHg 70%
    20:00 +21°C° 0 mm 3 mps 766 mmHg 72%
    21:00 +20°C° 0 mm 3 mps 766 mmHg 74%
    22:00 +20°C° 0 mm 2 mps 766 mmHg 76%
    23:00 +20°C° 0 mm 2 mps 766 mmHg 79%

    30 April, Tuesday

    Time Temperature Precipitation Wind Pressure Humidity
    00:00 +19°C° 0 mm 2 mps 765 mmHg 82%
    01:00 +18°C° 0 mm 2 mps 765 mmHg 84%
    02:00 +18°C° 0 mm 2 mps 765 mmHg 85%
    03:00 +18°C° 0 mm 2 mps 765 mmHg 85%
    04:00 +18°C° 0 mm 2 mps 764 mmHg 86%
    05:00 +18°C° 0 mm 2 mps 765 mmHg 85%
    06:00 +18°C° 0 mm 2 mps 765 mmHg 85%
    07:00 +18°C° 0 mm 2 mps 765 mmHg 84%
    08:00 +20°C° 0.1 mm 2 mps 765 mmHg 77%
    09:00 +22°C° 0.1 mm 3 mps 765 mmHg 69%
    10:00 +25°C° 0.1 mm 3 mps 765 mmHg 62%
    11:00 +25°C° 0.1 mm 3 mps 764 mmHg 62%
    12:00 +25°C° 0.1 mm 3 mps 764 mmHg 62%
    13:00 +25°C° 0.1 mm 3 mps 763 mmHg 62%
    14:00 +25°C° 0.1 mm 3 mps 763 mmHg 62%
    15:00 +25°C° 0.1 mm 3 mps 763 mmHg 63%
    16:00 +25°C° 0.1 mm 2 mps 763 mmHg 63%
    17:00 +24°C° 0 mm 2 mps 763 mmHg 67%
    18:00 +23°C° 0 mm 2 mps 763 mmHg 71%
    19:00 +21°C° 0 mm 1 mps 764 mmHg 74%
    20:00 +21°C° 0 mm 1 mps 764 mmHg 76%
    21:00 +21°C° 0 mm 1 mps 764 mmHg 77%
    22:00 +18°C° 0 mm 0 mps 764 mmHg 79%
    23:00 +18°C° 0 mm 0 mps 764 mmHg 81%
    Show more